Location: Newark
(51.0500°N, 12.4500°E)
Time: 01:06:34
(UTC+00:00)

Vanguard 1 - Pass Details

Date: 27 February 2020
Orbit: 649 x 3833 km, 34.2° (Epoch: 08 April)

Event Time Altitude Azimuth Distance (km) Brightness Sun altitude
Rises 10:01:15 0° 266° (W) 7,770 14.5 27.9°
Reaches altitude 10° 10:07:34 10° 259° (W) 6,443 14.2 28.3°
Maximum altitude 10:23:33 35° 204° (SSW) 3,511 14.0 29.1°
Drops below altitude 10° 10:33:33 10° 144° (SE) 4,033 14.5 29.5°
Sets 10:36:29 0° 135° (SE) 4,661 14.4 29.6°
